Regional Weather Roundup
Issued by NWS

Home | Current Version | Previous Version | Text Only | Print | Product List | Glossary Off
Versions: 1 2 3 4 5 6 7 8 9 10 11 12 13 14 15 16 17 18 19 20 21 22 23 24 25 26 27 28 29 30 31 32 33 34 35 36 37 38 39 40 41 42 43 44 45 46 47 48 49 50

000
ASUS43 KOAX 141310
RWRNE

WEATHER ROUNDUP FOR NEBRASKA
NATIONAL WEATHER SERVICE OMAHA NE
800 AM CDT SUN SEP 14 2014

NOTES: SATELLITE DATA IS BEING USED TO AUGMENT CLOUD COVER ABOVE
       12000 FEET.
       "FAIR" INDICATES FEW OR NO CLOUDS BELOW 12,000 FEET WITH NO
       SIGNIFICANT WEATHER AND/OR OBSTRUCTIONS TO VISIBILITY.

  * THESE STATIONS DO NOT REPORT WEATHER SUCH AS RAIN...SNOW OR FOG.

NEZ001>004-019>022-054>056-141400-
NEBRASKA PANHANDLE

CITY           SKY/WX    TMP DP  RH WIND       PRES   REMARKS
SCOTTSBLUFF    CLOUDY    46  44  93 E6        30.11R
ALLIANCE       CLEAR     41  38  89 CALM      30.12R
CHADRON        CLOUDY    40  38  93 N6        30.15R
KIMBALL        CLEAR     38  37  97 NW7       30.09S WCI  32
SIDNEY         FOG       45  43  93 NE5       30.12R VSB<1/4
$$

NEZ057>060-069>072-079>082-141400-
SOUTHWEST NEBRASKA

CITY           SKY/WX    TMP DP  RH WIND       PRES   REMARKS
NORTH PLATTE   CLEAR     39  38  96 E6        30.15R WCI  35
IMPERIAL       CLEAR     41  40  96 SE6       30.13R
LEXINGTON      PTCLDY    41  40  95 E5        30.17R
MCCOOK         CLEAR     40  39  97 NE6       30.15R
OGALLALA       CLEAR     42  41  97 E3        30.14R
$$

NEZ005>010-023>029-035>040-094-141400-
NORTH CENTRAL NEBRASKA

CITY           SKY/WX    TMP DP  RH WIND       PRES   REMARKS
VALENTINE      MOCLDY    40  39  97 CALM      30.18S
AINSWORTH      CLEAR     39  38  96 CALM      30.18S
BROKEN BOW     PTCLDY    42  40  92 N6        30.16R
O`NEILL        PTCLDY    41  41  99 CALM      30.19R
ORD            PTCLDY    38  37  97 CALM      30.18S
THEDFORD       PTCLDY    43  42  95 CALM      30.17R
$$

NEZ041-046>049-061>064-073>077-083>087-141400-
SOUTH CENTRAL NEBRASKA

CITY           SKY/WX    TMP DP  RH WIND       PRES   REMARKS
GRAND ISLAND   CLEAR     43  40  89 CALM      30.19R
AURORA         CLEAR     46  43  88 S6        30.18S
HASTINGS       CLEAR     47  41  80 S7        30.18R
HEBRON         CLEAR     44  42  93 CALM      30.21R
HOLDREGE       CLEAR     40  38  93 CALM      30.16S
KEARNEY *      CLEAR     41  37  87 CALM      30.18R
YORK           CLEAR     45  45 100 S6        30.20R
$$

NEZ011>018-030>034-042>045-141400-
NORTHEAST NEBRASKA

CITY           SKY/WX    TMP DP  RH WIND       PRES   REMARKS
NORFOLK        CLEAR     44  43  96 S3        30.19S
ALBION         CLEAR     41  39  93 CALM      30.20S
BLAIR          CLEAR     49  45  88 S5        30.21R
COLUMBUS *     CLEAR     43  39  87 CALM      30.21R
FREMONT        CLEAR     49  46  90 CALM      30.20S
TEKAMAH        CLEAR     46  44  93 S3        30.21R
WAYNE          CLEAR     41  41  98 CALM      30.20S
$$

NEZ050>053-065>068-078-088>093-141400-
SOUTHEAST NEBRASKA

CITY           SKY/WX    TMP DP  RH WIND       PRES   REMARKS
LINCOLN        CLEAR     47  44  90 S5        30.22S
OMAHA EPPLEY   PTCLDY    51  46  83 SE9       30.22S
BEATRICE       CLEAR     47  45  91 SE5       30.22S
FALLS CITY     SUNNY     52  48  86 CALM      30.24R
NEBRASKA CITY  CLEAR     48  46  92 S5        30.23S
PLATTSMOUTH    CLEAR     49  46  89 SE6       30.22S
$$

NEZ044-045-051>053-067-141400-
OMAHA AREA

CITY           SKY/WX    TMP DP  RH WIND       PRES   REMARKS
OMAHA EPPLEY   PTCLDY    51  46  83 SE9       30.22S
BLAIR          CLEAR     49  45  88 S5        30.21R
FREMONT        CLEAR     49  46  90 CALM      30.20S
OFFUTT AFB     CLEAR     50  49  99 E5        30.22S
PLATTSMOUTH    CLEAR     49  46  89 SE6       30.22S
WAHOO          FAIR      46  44  92 SE3       30.20F
$$



USA.gov is the U.S. government's official web portal to all federal, state and local government web resources and services.